Simultaneous Nadir Overpasses (SNOs) Predictions

Prediction of SNOs between NPP and TERRA Satellite Orbit:

Table of predicted SNOs for the next 14.0 days since TLE Epoch: 6/18/2021
Index Date (NPP) Time (NPP) Lat,Lon (NPP) SZA (NPP ) Date (TERRA) Time (TERRA) Lat,Lon (TERRA) SZA (TERRA ) Distance(km) Time Diff (sec)
1 06/20/2021 01:14:37 68.60, 159.59 45.07 06/20/2021 01:15:16 68.62, 159.54 45.09 3.20 39
2 06/20/2021 02:05:19 -68.51, -32.97 135.02 06/20/2021 02:04:46 -68.51, -32.96 135.02 0.55 33
3 06/22/2021 16:40:59 -69.17, 107.27 134.33 06/22/2021 16:42:10 -69.05, 108.31 134.49 43.47 71
4 06/22/2021 17:31:34 68.57, -84.61 45.05 06/22/2021 17:31:43 68.60, -84.61 45.07 2.84 9
5 06/22/2021 18:22:15 -68.48, 82.83 135.05 06/22/2021 18:21:12 -68.49, 82.90 135.03 3.09 63
6 06/25/2021 08:57:46 -68.67,-136.28 134.80 06/25/2021 08:58:42 -68.69,-136.26 134.78 3.01 56
7 06/25/2021 09:48:30 68.55, 31.19 45.08 06/25/2021 09:48:09 68.57, 31.24 45.11 3.28 21
8 06/25/2021 10:39:00 -67.81,-160.55 135.67 06/25/2021 10:37:50 -67.86,-161.98 135.59 59.94 70
9 06/28/2021 00:24:18 69.65, 170.80 46.32 06/28/2021 00:25:25 69.54, 173.08 46.16 89.11 67
10 06/28/2021 01:14:43 -68.64, -20.48 134.72 06/28/2021 01:15:09 -68.67, -20.41 134.70 3.65 26
11 06/28/2021 02:05:26 68.47, 147.05 45.11 06/28/2021 02:04:37 68.49, 147.01 45.13 2.12 49
12 06/30/2021 16:40:58 68.72, -72.14 45.52 06/30/2021 16:42:06 68.73, -72.09 45.51 2.11 68
13 06/30/2021 17:31:39 -68.57, 95.38 134.64 06/30/2021 17:31:37 -68.58, 95.36 134.63 1.51 2
14 06/30/2021 18:22:19 68.24, -96.88 45.03 06/30/2021 18:21:07 68.28, -97.35 45.08 20.10 72



Historial Predications of SNOs between NPP and TERRA
